User: anonymous
Location: ROBOsky.com Wild Flower Ridge Observatory
(43.9736°N, 79.9739°W)
Time: 00:46:52
(UTC-04:00)
Language:

Cosmos 1190 Rocket - Orbit

View from above orbital plane
View from above orbital plane
View from above satellite
View from above satellite

Ground track
Ground track

The orbit data is extracted from the following two-line orbital elements,

1 11870U 80056B   14294.43418177  .00000316  00000-0  11625-3 0  8437
2 11870 074.0535 188.2993 0016161 018.2060 033.9458 14.36550151795548
Epoch (UTC): 21 October 2014 10:25:13
Eccentricity: 0.0016161
inclination: 74.0535°
perigee height: 758 km
apogee height: 781 km
right ascension of ascending node: 188.2993°
argument of perigee: 18.2060°
revolutions per day: 14.36550151
mean anomaly at epoch: 33.9458°
orbit number at epoch: 79554

The dashed part of the orbit path shows where the satellite is in the earth's shadow,  

DLR